Location: Leipzig
(51.3392°N, 12.3528°E)
Time: 02:51:03
(UTC+01:00)

ISS - Pass Details

Date: 10 January 2018
Orbit: 402 x 407 km, 51.6° (Epoch: 18 January)

Event Time Altitude Azimuth Distance (km) Brightness Sun altitude
Exits shadow 04:58:42 16° 92° (E) 1,163 -0.7 -29.2°
Drops below altitude 10° 04:59:27 10° 93° (E) 1,468 -0.1 -29.1°
Sets 05:01:33 0° 94° (E) 2,329 1.3 -28.8°
